RH
23 74 100 100 100 100 100 100 100 90 65 74 100 100 99 100 89 100 100 100 100 97 70 93 100 100 100 86 70 100 84 100 69 52 52 46 44 45 42 32 40 39 25 15 13 11 10 10 9
74 88 96 100 100 100 100 100 100 94 42 77 100 100 96 91 81 100 100 100 99 96 82 98 100 100 100 78 87 100 88 74 100 99 78 63 56 48 45 40 29 34 40 29 19 14 13 12 11
46 97 100 100 100 100 99 100 100 65 29 93 100 100 100 100 100 100 100 96 75 77 50 85 81 98 100 98 88 100 91 69 89 86 89 76 58 63 54 47 42 39 30 29 30 28 21 15 13
100 78 100 100 100 93 100 98 67 39 75 96 100 100 100 100 100 100 100 100 100 100 97 58 69 100 100 100 72 85 70 84 63 64 61 62 57 54 55 50 48 46 46 37 31 33 34 30 17
99 99 88 99 100 100 91 50 97 100 100 99 100 99 97 96 97 99 98 100 100 100 100 100 100 90 100 92 64 64 75 54 47 50 51 50 52 46 43 52 53 53 49 52 48 37 36 37 34
95 99 100 100 84 93 98 100 100 98 88 88 65 97 89 70 86 89 85 98 96 100 94 94 100 90 86 78 64 51 51 56 44 43 43 46 48 49 51 50 39 42 56 58 50 51 45 40 35
87 100 94 100 100 97 99 91 98 97 91 100 78 100 76 78 81 79 56 63 71 74 80 71 76 66 52 56 62 63 94 93 83 72 54 58 65 63 71 61 46 42 37 41 58 52 49 54 53
100 99 100 90 80 100 71 92 99 80 84 74 88 100 100 74 100 84 55 41 47 49 50 50 43 50 86 93 80 81 77 68 79 92 81 68 65 60 62 60 57 54 52 54 54 61 61 52 56
100 97 100 52 100 83 64 97 100 100 77 100 100 94 69 71 69 70 45 28 24 36 39 37 34 35 37 41 45 56 64 54 48 44 44 46 54 57 55 60 51 49 61 57 65 77 71 59 58
72 55 74 78 93 57 73 98 99 100 100 89 85 90 83 73 57 42 32 18 14 19 23 23 20 19 18 16 17 22 27 31 33 35 37 37 38 36 36 53 58 50 60 52 57 74 75 70 59
90 57 50 64 67 100 92 81 100 100 100 100 100 96 97 62 76 76 90 40 34 35 26 28 18 16 16 14 18 16 16 15 16 17 15 17 24 24 26 26 27 35 45 55 47 78 76 77 70
26 70 50 77 92 98 90 96 93 88 100 100 88 74 63 60 95 100 100 100 97 65 76 90 63 44 35 28 26 25 19 20 18 20 18 22 23 22 22 21 20 18 16 19 38 36 56 56 57
16 28 66 73 97 100 88 99 66 65 79 93 88 98 100 100 100 98 90 80 65 60 57 47 37 32 31 32 29 27 27 29 35 34 32 31 31 30 26 24 29 28 27 21 21 23 26 28 30
16 23 60 67 75 95 80 95 88 62 57 70 90 87 69 70 66 60 52 45 41 35 36 37 35 27 19 20 19 13 14 19 21 22 23 24 27 32 35 34 31 29 28 29 30 31 29 22 22
12 26 41 71 67 85 86 85 100 89 93 93 97 86 69 52 40 36 35 35 37 28 16 14 13 14 16 16 15 15 14 12 12 12 12 12 13 15 17 22 29 34 39 37 34 32 32 33 26
7 11 21 37 62 65 69 58 63 62 59 52 48 47 39 36 36 23 25 16 14 13 14 14 15 18 21 21 19 23 23 24 21 19 19 18 17 15 14 14 13 14 18 22 31 37 34 35 32
8 8 8 14 22 34 44 49 34 14 19 18 18 18 14 14 13 14 14 14 13 14 16 16 16 15 15 14 18 20 24 25 33 32 38 36 31 27 23 20 15 13 12 14 15 15 24 44 48
8 9 10 9 8 7 8 8 9 9 9 11 12 12 13 13 13 13 14 14 15 15 13 16 19 20 19 19 19 18 23 23 23 25 32 34 40 33 28 25 22 18 12 12 12 12 12 16 21
13 14 13 12 11 11 10 10 11 12 12 12 12 11 12 13 12 13 14 16 15 14 16 16 16 19 22 24 24 23 23 22 25 24 28 35 38 40 29 29 24 22 23 16 11 12 10 9 11
20 21 16 18 16 14 16 18 17 17 18 17 17 17 18 18 17 16 16 16 17 17 18 22 22 21 18 19 25 27 29 26 26 26 32 33 42 39 31 30 21 23 22 20 19 13 11 10 9
27 38 29 26 24 20 20 22 29 28 29 26 26 26 25 24 23 26 25 27 29 28 28 30 33 32 30 24 24 26 29 33 30 30 31 35 47 42 40 35 29 25 21 22 20 20 14 12 10
29 32 52 32 33 36 29 32 31 36 40 44 43 37 32 27 27 28 33 36 39 44 47 50 51 45 48 46 40 28 31 35 37 35 35 40 54 50 42 43 37 34 27 25 23 22 20 15 13
46 32 50 59 52 42 53 34 41 38 42 45 45 49 50 36 31 28 27 34 38 61 66 84 94 81 61 60 55 48 38 41 42 48 52 52 56 51 58 46 44 40 31 27 26 24 24 21 15
79 49 44 46 61 54 54 70 60 46 44 47 34 31 34 37 39 42 40 60 99 97 84 87 100 91 84 82 61 61 54 46 42 52 57 64 67 74 64 65 56 46 32 28 28 27 24 23 23
98 78 58 53 43 59 53 63 86 72 52 37 44 35 33 35 51 49 76 100 100 99 69 68 73 82 83 92 69 58 66 69 59 47 57 62 72 74 79 71 54 50 38 28 29 27 27 25 25
100 100 97 84 72 66 68 76 84 71 43 53 41 49 42 41 42 59 74 82 100 100 98 86 82 72 84 90 80 66 58 57 79 75 68 77 76 84 88 72 55 50 41 36 35 34 26 27 29
100 100 100 100 95 88 89 99 99 82 57 77 57 52 53 52 57 61 78 96 89 100 100 100 86 83 79 90 79 85 87 78 92 99 86 76 82 82 89 78 71 58 48 39 36 42 30 26 28
100 100 100 100 100 100 100 93 58 98 56 88 96 79 58 53 62 90 91 100 100 99 79 90 100 100 100 77 72 79 100 100 100 100 98 86 76 80 99 86 66 48 52 39 30 30 29 26 30
100 100 100 100 96 100 100 98 77 55 77 99 100 100 97 96 99 100 100 100 100 100 89 83 100 100 100 100 85 99 100 100 100 100 99 87 82 84 100 97 80 58 46 38 38 36 29 28 32
100 100 100 100 98 100 100 100 100 89 81 100 100 100 100 100 100 100 100 98 100 100 100 100 100 100 100 100 93 100 100 100 100 100 94 84 82 90 96 99 80 64 48 38 35 32 28 27 35
Wind_Speed
72 66 58 49 33 18 14 21 42 28 19 18 23 21 19 19 16 18 16 5 7 5 11 10 17 9 6 7 11 13 12 15 12 14 14 17 17 18 17 16 16 17 18 18 17 15 13 13 14
74 66 54 34 12 7 20 26 36 37 26 22 21 27 22 18 17 18 19 14 8 8 14 6 7 8 14 11 11 15 13 13 13 14 13 15 18 20 20 17 16 16 18 18 18 17 15 14 14
68 59 34 31 3 23 31 29 22 24 26 22 20 22 21 21 19 20 18 16 14 16 18 17 16 19 17 17 21 16 15 15 15 15 14 19 19 18 19 20 19 18 17 19 19 19 18 16 14
58 37 33 24 25 31 36 31 22 22 24 19 15 15 10 15 18 11 10 15 19 18 19 20 23 24 23 22 20 19 19 20 21 22 23 19 23 23 22 21 21 20 20 20 20 20 20 19 18
32 13 20 30 24 34 32 28 27 20 23 22 20 16 14 15 14 10 15 14 17 10 13 19 19 16 19 17 19 22 22 24 26 26 28 30 26 25 26 25 24 25 24 21 20 20 20 20 19
33 25 35 40 32 34 27 29 27 20 15 13 18 10 14 16 16 16 19 13 17 20 20 19 19 26 27 28 29 31 33 32 32 32 30 30 32 31 30 31 30 28 27 28 25 22 22 20 19
27 35 37 39 41 33 28 26 21 18 15 13 10 11 14 14 18 20 24 25 25 24 23 24 26 30 33 34 35 34 31 30 32 32 35 32 34 34 35 37 35 34 31 30 30 27 23 23 22
42 38 38 43 40 32 32 24 12 14 15 15 13 7 11 11 9 14 22 27 27 28 28 28 30 33 32 31 34 34 36 35 33 33 32 35 39 38 36 35 35 32 31 32 32 32 31 27 25
43 43 47 45 34 34 36 20 13 9 14 8 8 15 17 15 21 24 26 29 29 30 33 34 36 36 36 39 41 43 42 43 44 44 44 44 41 42 42 38 39 36 30 31 31 31 30 31 30
31 54 52 47 32 41 35 24 16 15 7 10 13 13 15 17 22 28 32 32 33 33 35 40 43 45 47 49 50 49 50 49 48 50 51 48 46 44 45 43 42 40 36 33 32 35 34 31 29
35 44 55 40 40 33 34 26 22 20 17 16 15 12 12 15 17 21 25 29 36 36 40 44 44 49 48 51 52 53 54 56 56 55 59 58 58 58 56 54 50 48 45 41 38 35 33 35 35
23 51 52 40 35 25 26 24 24 23 21 19 17 24 20 29 23 22 28 28 33 38 42 39 46 49 53 56 58 55 61 62 62 65 65 65 67 68 68 68 65 64 58 54 52 43 42 42 42
22 47 44 35 32 20 28 24 26 29 22 20 27 23 30 23 29 34 40 45 47 50 53 54 58 61 62 66 69 67 68 70 68 70 73 71 71 71 72 74 73 72 72 69 67 64 57 55 53
20 39 44 38 37 26 32 24 28 29 31 32 31 32 33 38 42 44 45 50 53 61 60 57 58 52 44 45 50 49 52 56 61 64 66 69 70 70 71 75 76 77 76 76 78 76 71 67 64
3 34 42 34 33 30 28 29 20 30 37 38 41 42 45 46 46 50 56 61 57 43 33 32 33 36 32 34 35 35 37 39 41 44 47 52 56 58 63 69 72 73 76 77 76 76 76 77 73
31 3 35 37 34 36 28 29 36 37 32 38 41 46 49 54 52 40 36 29 23 24 22 27 29 29 25 30 29 26 22 21 22 25 28 31 36 43 50 56 63 67 69 72 75 80 79 79 79
35 32 18 11 32 36 40 38 40 29 26 23 24 28 22 24 20 21 19 16 16 22 25 29 29 33 30 34 35 36 36 34 30 31 35 38 36 34 36 40 48 54 59 64 68 70 75 81 81
38 34 35 27 20 12 7 8 10 11 11 14 17 15 13 14 13 13 16 19 22 23 28 29 31 31 35 37 40 39 41 40 36 41 38 42 45 44 45 37 37 45 48 51 58 62 64 71 77
31 37 33 29 26 20 18 17 18 16 14 11 8 11 14 17 18 21 25 27 27 27 30 33 35 34 35 36 39 42 43 46 42 45 43 47 48 51 50 49 47 38 40 49 47 53 57 60 67
25 27 31 30 23 22 21 20 16 14 13 12 13 16 19 23 25 28 28 29 29 32 33 37 39 42 41 43 41 42 45 46 46 48 48 50 52 54 55 58 50 53 44 39 47 50 51 56 59
22 21 24 24 21 19 18 20 20 17 18 17 17 19 21 22 24 27 30 31 32 34 37 42 44 46 47 47 46 45 47 49 50 51 51 53 55 57 60 64 62 61 55 50 42 45 51 53 56
18 17 14 20 20 14 15 17 20 20 22 23 24 24 26 27 27 30 30 34 38 40 44 46 50 50 51 52 54 54 50 51 53 55 56 59 57 59 64 66 70 67 66 61 56 45 44 51 53
12 13 13 10 14 16 12 15 18 20 24 26 29 30 31 31 30 30 32 35 38 44 47 51 55 56 56 56 56 58 58 56 57 58 60 61 62 65 66 69 71 72 71 68 63 61 48 46 50
9 8 10 12 11 13 17 14 14 21 23 26 26 28 29 31 33 33 33 37 49 51 50 52 56 56 57 59 60 61 63 63 60 61 64 65 67 68 71 73 74 75 75 72 72 74 63 52 48
17 13 8 10 15 14 16 19 14 20 25 28 30 33 35 38 43 42 45 51 50 51 49 50 53 55 58 60 63 64 66 69 70 68 69 71 70 72 73 75 77 80 80 79 79 80 72 61 56
30 27 21 18 15 18 20 20 19 25 30 31 35 36 41 43 44 48 47 49 50 50 51 52 56 57 58 61 63 64 67 71 74 76 74 75 77 77 77 78 80 80 82 83 82 85 74 64 60
36 33 29 29 27 29 27 25 25 30 37 36 38 40 45 45 50 49 54 56 55 54 56 58 62 64 63 64 66 68 70 73 76 78 77 78 78 79 81 82 84 84 86 86 85 84 83 70 62
37 39 32 33 30 32 34 31 25 36 37 40 41 45 44 48 55 58 60 64 63 62 64 62 66 71 69 66 68 70 74 76 78 82 82 84 82 82 83 85 86 88 88 88 88 90 89 76 65
36 42 37 35 36 38 35 39 31 32 40 42 45 49 51 56 58 59 63 66 70 71 75 78 76 71 68 70 74 75 78 81 85 85 85 88 86 87 88 90 91 92 93 95 91 93 93 78 67
44 40 40 42 41 46 45 44 43 40 40 41 45 51 54 56 57 59 63 70 75 78 80 80 83 84 81 76 80 81 81 86 89 89 90 92 92 92 95 95 97 97 98 98 99 93 92 75 68
Wind_Direction
129 127 121 121 117 85 116 197 220 213 209 213 203 197 191 189 189 214 200 194 186 232 245 285 282 254 256 309 315 339 337 341 342 346 344 344 346 352 351 349 353 349 348 345 348 341 345 338 336
124 124 114 109 52 105 156 211 207 213 207 220 205 197 198 206 201 214 207 209 198 220 228 246 267 272 262 280 293 314 312 329 329 327 337 338 341 344 343 341 339 341 341 346 345 349 345 345 338
121 115 116 142 71 233 200 204 204 215 212 210 198 184 198 205 208 212 214 225 236 238 235 242 255 259 278 285 299 283 303 297 312 321 330 333 334 333 334 331 332 331 331 334 334 338 343 343 339
123 118 121 143 188 199 201 201 192 192 206 197 185 197 209 216 211 179 216 232 246 253 251 248 262 268 283 293 282 281 281 290 292 304 309 315 319 325 325 322 323 324 325 323 324 328 334 339 340
101 147 169 157 163 189 185 180 176 166 180 183 185 203 196 223 220 231 211 223 226 229 251 255 274 297 272 288 287 289 289 291 293 290 297 300 304 308 316 317 319 318 317 315 315 315 321 327 330
148 221 218 189 191 178 172 186 184 177 182 205 208 219 227 228 230 237 240 259 235 252 258 269 280 288 294 294 290 289 294 293 293 292 291 295 297 300 303 307 308 313 309 309 305 305 306 307 313
159 162 173 167 173 168 183 174 171 196 194 200 223 213 235 234 246 247 253 272 277 281 264 273 281 285 285 285 286 287 288 292 294 292 296 296 296 296 297 301 304 306 306 306 304 298 297 299 303
149 161 162 167 165 175 173 167 180 193 199 210 197 196 241 253 254 259 262 266 268 274 279 273 271 270 275 281 282 285 286 291 294 292 297 296 297 295 294 294 296 299 296 298 302 296 296 290 292
162 170 176 170 169 178 169 182 170 180 198 184 212 235 254 252 257 268 271 272 275 273 275 278 281 280 280 284 283 284 284 286 286 287 288 288 288 290 291 286 288 290 285 287 288 286 285 289 288
178 168 176 171 181 177 180 190 184 185 187 227 234 240 275 266 274 292 291 276 278 279 281 283 284 285 286 290 290 289 289 288 287 287 285 283 282 283 284 282 281 285 279 277 278 275 278 279 284
202 192 176 182 181 190 194 193 181 181 203 217 226 201 269 281 279 290 285 290 294 298 290 294 291 288 289 288 290 291 292 293 289 290 289 286 285 286 281 279 277 277 274 273 272 266 270 270 275
204 192 184 185 185 201 204 200 201 194 204 212 236 237 269 286 280 272 274 286 288 294 295 299 299 297 297 293 288 289 288 287 284 285 287 288 287 286 287 285 284 282 279 277 270 266 260 266 269
218 193 190 187 194 200 206 222 226 226 215 219 245 247 273 284 281 282 299 303 305 303 301 297 292 293 292 291 291 291 293 289 284 284 284 282 280 279 278 280 280 281 281 281 279 276 265 265 265
219 205 200 196 208 210 214 225 232 231 237 242 256 257 269 281 304 303 300 301 298 300 303 300 298 303 303 295 296 299 297 286 283 282 283 281 278 277 276 275 276 278 275 275 277 275 272 270 268
219 216 213 218 220 234 228 235 250 238 240 248 266 277 286 294 296 297 294 293 309 318 322 329 337 333 327 320 320 316 312 305 296 291 287 285 281 277 274 272 273 271 271 274 274 272 270 267 264
45 346 234 232 233 239 253 271 263 280 278 281 277 286 278 283 294 309 308 315 330 336 343 4 5 359 357 347 351 350 353 352 343 326 317 311 304 294 286 280 274 271 268 265 264 266 266 265 265
48 51 49 253 254 256 259 262 276 281 287 302 298 298 312 307 331 333 334 347 343 1 4 5 2 5 1 360 3 3 355 350 353 359 6 4 355 346 331 310 288 278 271 267 262 261 259 258 258
33 45 48 51 50 53 42 36 29 22 6 351 354 355 338 339 336 338 348 351 351 351 349 351 355 354 359 356 358 356 358 355 348 349 353 356 354 349 348 336 322 308 284 272 266 263 260 256 254
43 34 40 44 47 50 50 41 36 28 14 356 358 338 343 343 345 345 346 344 343 342 344 348 349 350 349 351 349 350 350 353 351 353 352 353 350 352 349 345 348 327 317 293 277 267 262 258 255
45 40 38 36 45 43 36 26 24 22 16 1 351 348 343 340 337 336 335 336 335 338 338 340 341 345 345 347 344 346 346 346 347 347 347 348 349 351 348 348 341 346 335 309 289 280 269 262 257
45 37 40 42 43 38 30 22 12 10 3 358 353 342 340 342 341 341 337 338 338 340 338 338 339 338 338 338 340 340 342 343 342 343 342 344 343 344 346 347 345 346 343 337 311 287 277 268 261
26 38 37 26 26 26 20 5 5 356 351 351 344 335 337 336 331 331 333 334 336 337 337 337 336 336 335 336 334 337 337 338 339 338 339 340 339 339 342 343 345 344 344 342 337 310 285 274 267
13 19 22 9 7 6 353 360 354 349 341 338 335 335 336 330 325 327 331 336 334 333 332 331 329 329 331 334 334 334 334 334 335 335 336 336 337 337 336 340 340 341 341 342 340 335 306 284 270
314 341 2 354 337 337 331 328 325 345 335 329 331 328 327 325 325 328 327 328 327 325 325 324 323 325 326 328 329 332 333 333 331 332 332 333 333 332 334 334 336 337 337 338 337 335 327 302 283
287 283 312 342 343 319 330 321 320 314 325 327 322 321 321 319 318 317 319 322 323 320 322 324 323 323 325 323 326 328 331 332 332 331 331 330 330 330 331 331 332 333 334 335 335 334 326 314 298
287 292 285 291 302 329 321 316 318 315 327 317 322 318 318 321 324 326 323 318 317 316 316 318 321 321 321 320 321 323 326 328 329 329 329 327 328 328 328 328 328 329 330 332 330 333 325 313 300
290 286 292 290 299 303 305 319 316 315 316 315 313 318 315 317 316 318 321 321 326 322 321 319 318 320 320 319 320 320 320 323 323 325 326 325 324 324 324 325 325 325 327 328 329 326 327 313 299
285 292 288 294 301 302 302 296 308 305 310 307 307 309 316 319 319 317 320 321 321 319 319 319 317 318 316 319 321 321 318 318 320 321 322 322 322 321 321 322 323 322 324 324 327 327 324 316 297
281 293 291 288 299 297 301 300 297 311 304 303 306 306 311 312 315 321 321 319 316 314 317 316 312 313 314 313 320 319 316 317 318 318 319 320 319 319 318 319 319 320 322 322 324 322 323 313 298
281 285 289 291 294 294 295 294 295 301 305 304 303 302 305 308 313 314 311 311 313 310 309 315 311 315 309 312 313 315 313 315 315 316 317 318 317 317 316 317 317 318 319 319 321 321 321 309 293